#timestamp,LO_Frequency,Hit,StdDev 
1516723215.9,286046994.3,N
1516723235.7,286046993.7,N
1516723255.6,286046996.0,N
1516723275.4,286046995.5,N
1516723295.2,286046994.9,N
1516723315.1,286046998.1,N
1516723316.0,286046998.1,N
1516723335.8,286046997.0,N
1516723355.6,286046999.1,N
1516723375.5,286046994.9,N
1516723395.3,286046994.1,N
1516723415.2,286046993.7,Y
1516723435.9,286046996.8,P
1516723455.7,286046998.5,P
1516723475.6,286047001.9,N
1516723495.4,286047005.4,N
1516723515.2,286047003.1,N
1516723535.1,286047005.9,N
1516723536.0,286047005.9,N
1516723555.8,286047006.0,N
1516723575.7,286047000.3,N
1516723595.5,286047000.8,N
1516723615.3,286047001.1,N
1516723635.2,286047000.0,N
1516723655.0,286047002.6,N
1516723655.9,286047002.6,N
1516723675.7,286047002.5,N
1516723695.6,286047003.9,N
1516723715.4,286047011.9,Y
1516723735.3,286046998.2,P
1516723755.1,286046996.7,N
1516723756.0,286046996.7,N
1516723775.8,286046995.3,N
1516723795.7,286046997.6,N
1516723815.5,286046997.9,N
1516723835.4,286046997.1,N
1516723855.2,286046996.2,N
1516723875.0,286046997.1,N
1516723875.9,286046997.1,N
1516723895.8,286046999.9,N
1516723915.6,286046999.9,N
1516723935.4,286046998.5,N
1516723955.3,286046998.3,N
1516723975.1,286046999.4,N
1516723995.9,286046998.8,N
1516724015.7,286047000.7,N
1516724035.5,286047001.2,N
1516724055.4,286047002.3,N
1516724075.2,286047002.2,N
1516724095.0,286047001.9,N
1516724095.9,286047001.9,N
1516724115.8,286047000.5,N
1516724135.6,286047002.2,N
1516724155.5,286047002.8,N
1516724175.3,286046998.9,N
1516724195.1,286046996.5,N
1516724215.9,286046998.4,N
1516724235.7,286046998.9,N
1516724255.5,286046996.5,N
1516724275.4,286046999.9,N
1516724295.2,286047000.9,N
1516724315.1,286046998.5,N
1516724316.0,286046998.5,N
1516724335.8,286046996.7,N
1516724355.6,286046999.3,N
1516724375.5,286046996.6,N
1516724395.3,286046999.5,N
1516724415.1,286047001.1,N
1516724435.9,286046998.1,N
1516724455.7,286047000.8,N
1516724475.6,286046998.5,N
1516724495.4,286046998.2,N
1516724515.2,286047000.8,N
1516724535.1,286046996.5,N
1516724536.0,286046996.5,N
1516724555.8,286046998.2,N
1516724575.6,286046997.8,N
1516724595.5,286047000.8,N
1516724615.3,286047000.6,N
1516724635.2,286046998.5,N
1516724655.9,286046998.5,N
1516724675.7,286046999.0,N
1516724695.6,286047000.1,N
1516724715.4,286046998.4,N
1516724735.3,286047002.8,N
1516724755.1,286047001.2,N
1516724756.0,286047001.2,N
1516724775.8,286046999.5,N
1516724795.7,286046997.1,N
1516724815.5,286046997.2,N
1516724835.3,286047000.4,N
1516724855.2,286047000.3,N
1516724875.0,286047000.2,N
1516724875.9,286047000.2,N
1516724895.8,286047004.7,N
1516724915.6,286047004.0,N
1516724935.4,286047008.9,Y
1516724955.3,286047008.3,P
1516724975.1,286047006.2,N
1516724995.9,286047007.3,N
1516725015.7,286047007.5,N
1516725035.5,286047007.7,N
1516725055.4,286047007.8,N
1516725075.2,286047008.0,N
1516725095.0,286047012.4,Y
1516725096.0,286047012.4,P
1516725115.8,286047000.9,N
1516725135.6,286047001.2,N
1516725155.5,286046999.3,N
1516725175.3,286047004.0,N
1516725195.1,286047004.2,N
1516725215.9,286046999.7,N
1516725235.7,286046999.3,N
1516725255.6,286046999.9,N
1516725275.4,286046998.8,N
1516725295.2,286046995.1,N
1516725315.1,286046997.2,N
1516725316.0,286046997.2,N
1516725335.8,286047001.1,N
1516725355.6,286046999.1,N
1516725375.5,286046996.7,N
1516725395.3,286047000.2,N
1516725415.2,286047001.6,N
1516725435.9,286046996.5,N
1516725455.7,286046999.0,N
1516725475.6,286046999.4,N
1516725495.4,286046997.4,N
1516725515.2,286046996.7,N
1516725535.1,286046998.5,N
1516725536.0,286046998.5,N
1516725555.8,286046996.9,N
1516725575.7,286046996.9,N
1516725595.5,286046997.5,N
1516725615.3,286046995.0,N
1516725635.2,286046997.3,N
1516725655.0,286046996.9,N
1516725655.9,286046996.9,N
1516725675.7,286046999.1,N
1516725695.6,286046999.8,N
1516725715.4,286047000.5,N
1516725735.3,286046999.0,N
1516725755.1,286047002.7,N
1516725756.0,286047002.7,N
1516725775.8,286047000.5,N
1516725795.7,286047001.8,N
1516725815.5,286047000.6,N
1516725835.3,286046998.8,N
1516725855.2,286046998.9,N
1516725875.0,286046997.6,N
1516725875.9,286046997.6,N
1516725895.8,286046997.6,N
1516725915.6,286046997.3,N
1516725935.4,286046999.3,N
1516725955.3,286047000.9,N
1516725975.1,286046996.7,N
1516725995.8,286046999.6,N
1516726015.7,286046999.5,N
1516726035.5,286046999.6,N
1516726055.4,286046996.9,N
1516726075.2,286046995.4,N
1516726095.0,286046997.3,N
1516726095.9,286046997.3,N
1516726115.8,286046998.0,N
1516726135.6,286046997.7,N
1516726155.4,286046994.9,N
1516726175.3,286046994.2,Y
1516726195.1,286046993.7,P
1516726215.9,286046994.8,N
1516726235.7,286046996.0,N
1516726255.5,286046999.3,N
1516726275.4,286046996.8,N
1516726295.2,286046997.2,N
1516726315.0,286046996.8,N
1516726346.0,286046995.1,E
1516726355.0,286046997.3,N
1516726355.9,286046997.3,P
1516726375.7,286047005.5,P
1516726395.6,286047004.8,N
1516726415.4,286047005.9,N
1516726435.3,286047005.8,N
1516726455.1,286047003.1,N
1516726456.0,286047003.1,N
1516726475.8,286047004.0,N
1516726495.7,286047001.5,N
1516726515.5,286047002.8,N
1516726535.3,286047002.2,N
1516726555.2,286047002.8,N
1516726575.0,286047000.1,N
1516726575.9,286047000.1,N
1516726595.8,286046998.4,N
1516726615.6,286046999.7,N
1516726635.4,286047004.0,N
1516726655.3,286047002.8,N
1516726675.1,286047002.6,N
1516726695.8,286047001.6,N
1516726715.7,286047000.5,N
1516726735.5,286047000.3,N
1516726755.4,286047000.1,N
1516726775.2,286047003.6,N
1516726795.0,286047006.2,N
1516726795.9,286047006.2,N
